Showing default

OPS 0340, 2125

Orbit data source: Space-Track

OPS 0340, 2125 is a payload satellite owned by USAF SSD (US) in SSO that was launched on Thu, 31 Mar 1966 UTC via a THOR BURNER 1 launch vehicle from the Air Force Western Test Range (AFWTR). Payload-class satellites include a variety of spacecraft equipped with specific instruments for various scientific and technological missions. These include communications satellites like Starlink; space stations such as the ISS; scientific satellites like the Hubble; Earth observation satellites from companies like Planet Labs, Umbra, and HawkEye 360; GPS; miniature CubeSats for education and research; and military/defense satellites.

Loading next visibility...
Identifier
2125, 1966-026A
Orbit
SSO
Country
Flag of USUS
Related business
Manufacturer
RCA/East Windsor
Mission
Defense Weather
Bus & Motor
P35?, Unknown motor
Mass
72 kg wet, 72 kg dry
Launch date (UTC)
1966-03-31 (59 years ago)
Launch vehicle
THOR BURNER 1
Launch site
Air Force Western Test Range (AFWTR)
Object type
Payload
Rocket body
Debris
Shape & HBR
Cyl, 0.3 m
Radar Cross Section
0.377 m², Medium (>0.1 m² and < 1m²)

Expand to show TLE details & history
Last TLE update: 20 hours ago

TLE from 20 hours ago
0 OPS 0340
1 02125U 66026A   25260.48302184  .00000459  00000-0  91009-4 0  9996
2 02125  98.0115  72.2822 0148119  20.7383 339.9743 14.60204266119747
Epoch: 2025-09-17T11:35Z
TLE epoch observation values (Epoch: 2025-09-17T11:35:33.086Z)
Latitude
-0.00004°
Longitude
-98.26398°
Altitude
597.274 km
Speed
7.613 km/s
True Right ascension
04h 49m 07s
True Declination
0° 00' 00"
Sunlit
Object was in daylight at epoch
Visualization orbit readout
Latitude
Unknown
Longitude
Unknown
Altitude
Unknown
Speed
Unknown
Apparent Right ascension
Unknown
Apparent Declination
Unknown
Sunlit
N/A
Visualization observer readout
Local Sidereal Time
23:56:10
Azimuth
Unknown
Elevation
Unknown
Doppler factor
Unknown
Orbital elements
Apogee altitude
794.272 km
Perigee altitude
584.899 km
Semi-major axis
7,067.723 km
Eccentricity
0.01481
Inclination
98.0115°
RAAN
72.2822°
Arg. of periapsis
20.7383°
True anomaly
339.3828°
Mean anomaly
339.9743°
Eccentric anomaly
339.67959°
Mean motion
3.65278 °/min
Orbital period
98.55 mins
BSTAR
0.000091009
Loading maneuver chart data...
Computing Atmospheric mass density...
Loading historical data...
Loading historical data...
Loading historical data...
Loading historical data...
Loading historical data...
Loading historical data...
Loading historical data...

Documentation

Showing up to 5 results
|